Weather History for Timmins, ON

Change the Weather History Date:

Friday, September 27, 2013

  Actual Average Record
Temperature  
Mean Temperature 58 °F -  
Max Temperature 78 °F 50 °F 78 °F (2013)
Min Temperature 39 °F 32 °F 26 °F (2012)
Degree Days  
Heating Degree Days 6    
Growing Degree Days 8 (Base 50)    
Moisture  
Dew Point 47 °F    
Average Humidity 69    
Maximum Humidity 100    
Minimum Humidity 21    
Precipitation  
Precipitation 0.00 in 0.10 in - ()
Sea Level Pressure  
Sea Level Pressure 30.18 in    
Wind  
Wind Speed 5 mph ()    
Max Wind Speed 13 mph    
Max Gust Speed 21 mph    
Visibility 15.0 miles    
Events      
Averages and records for this station are not official NWS values.
T = Trace of Precipitation, MM = Missing Value Source: Averaged Metar Reports

Daily Weather History Graph

Daily Weather History Graph

Search for Another Location

Airport:

Trip Planner

Search our weather history database for the weather conditions in past years. The results will help you decide how hot, cold, wet, or windy it might be!

Date:

Astronomy

Sep. 27, 2013 Rise Set
Actual Time 7:19 AM EDT 7:12 PM EDT
Civil Twilight 6:48 AM EDT 7:43 PM EDT
Nautical Twilight 6:11 AM EDT 8:20 PM EDT
Astronomical Twilight 5:34 AM EDT 8:57 PM EDT
Moon No Moon Rise 3:15 PM EDT (9/27)
Length of Visible Light 12h 55m
Length of Day
11h 52m
Last Quarter, 45% of the Moon is Illuminated
Sep 27
Last Quarter
Oct 4
New
Oct 11
First Quarter
Oct 18
Full
Oct 26
Last Quarter

Hourly Weather History & Observations

Time (EDT) Temp. Windchill Dew Point Humidity Pressure Visibility Wind Dir Wind Speed Gust Speed Precip Events Conditions
12:00 AM 50.0 °F - 46.4 °F 87% 30.15 in 15.0 mi South 3.5 mph - N/A   Partly Cloudy
1:00 AM 48.2 °F - 46.4 °F 93% 30.17 in 15.0 mi South 2.3 mph - N/A   Clear
2:00 AM 45 °F - 43 °F 92% 30.17 in 15 mi SSE 3.5 mph - -  
2:00 AM 44.6 °F 43.1 °F 42.8 °F 93% 30.17 in 15.0 mi SSE 3.5 mph - N/A   Clear
3:00 AM 46.4 °F 44.3 °F 46.4 °F 100% 30.17 in 15.0 mi South 4.6 mph - N/A   Clear
4:00 AM 48.2 °F - 44.6 °F 87% 30.17 in 15.0 mi South 4.6 mph - N/A   Clear
5:00 AM 46.4 °F 44.3 °F 44.6 °F 93% 30.19 in 15.0 mi South 4.6 mph - N/A   Partly Cloudy
6:00 AM 42.8 °F 40.1 °F 42.8 °F 100% 30.21 in 15.0 mi South 4.6 mph - N/A   Partly Cloudy
7:00 AM 39.2 °F 35.9 °F 39.2 °F 100% 30.23 in 15.0 mi South 4.6 mph - N/A   Partly Cloudy
8:00 AM 44 °F - 43 °F 97% 30.24 in 15 mi South 5.8 mph - -  
8:00 AM 44.6 °F 40.7 °F 42.8 °F 93% 30.24 in 15.0 mi South 6.9 mph - N/A   Partly Cloudy
9:00 AM 50.0 °F - 48.2 °F 94% 30.23 in 15.0 mi South 4.6 mph - N/A   Partly Cloudy
10:00 AM 59.0 °F - 50.0 °F 72% 30.23 in 15.0 mi South 9.2 mph - N/A   Partly Cloudy
11:00 AM 64.4 °F - 50.0 °F 59% 30.23 in 15.0 mi South 9.2 mph - N/A   Clear
12:00 PM 69.8 °F - 51.8 °F 53% 30.21 in 15.0 mi South 9.2 mph - N/A   Clear
1:00 PM 73.4 °F - 50.0 °F 44% 30.19 in 15.0 mi South 9.2 mph - N/A   Clear
2:00 PM 76 °F - 44 °F 21% 30.18 in 15 mi SW 8.1 mph - -  
2:00 PM 75.2 °F - 42.8 °F 31% 30.18 in 15.0 mi SW 5.8 mph - N/A   Partly Cloudy
3:00 PM 77.0 °F - 46.4 °F 34% 30.16 in 15.0 mi South 10.4 mph - N/A   Partly Cloudy
4:00 PM 78.8 °F - 48.2 °F 34% 30.15 in 15.0 mi SSW 12.7 mph 20.7 mph N/A   Partly Cloudy
5:00 PM 77.0 °F - 50.0 °F 39% 30.14 in 15.0 mi South 10.4 mph 18.4 mph N/A   Partly Cloudy
6:00 PM 75.2 °F - 50.0 °F 41% 30.14 in 15.0 mi South 8.1 mph - N/A   Partly Cloudy
7:00 PM 69.8 °F - 50.0 °F 49% 30.15 in 15.0 mi South 4.6 mph - N/A   Scattered Clouds
8:00 PM 64 °F - 50 °F 51% 30.15 in 15 mi South 4.6 mph - -  
8:00 PM 64.4 °F - 50.0 °F 59% 30.15 in 15.0 mi South 5.8 mph - N/A   Scattered Clouds
9:00 PM 59.0 °F - 50.0 °F 72% 30.15 in 15.0 mi South 5.8 mph - N/A   Partly Cloudy
10:00 PM 57.2 °F - 50.0 °F 77% 30.16 in 15.0 mi South 5.8 mph - N/A   Partly Cloudy
11:00 PM 57.2 °F - 48.2 °F 72% 30.17 in 15.0 mi South 6.9 mph - N/A   Partly Cloudy